| time (UTC) | temp F | wind direction | speed MPH | gust MPH | rain 1hr in | rain 24hr in | rain mn in | humidity % | barometer mb |
| 20260902221605 | 92 | 221 | 5.0 | 11.0 | 0.00 | 0.00 | 0.00 | 59 | 1016.3 |
| 20260902220116 | 92 | 233 | 3.0 | 11.0 | 0.00 | 0.00 | 0.00 | 59 | 1016.4 |
| 20260902214559 | 92 | 228 | 6.0 | 13.0 | 0.00 | 0.00 | 0.00 | 59 | 1016.3 |
| 20260902213106 | 93 | 249 | 5.0 | 11.0 | 0.00 | 0.00 | 0.00 | 59 | 1016.3 |
| 20260902211603 | 93 | 222 | 4.0 | 11.0 | 0.00 | 0.00 | 0.00 | 59 | 1016.4 |
| 20260902210109 | 92 | 198 | 6.0 | 12.0 | 0.00 | 0.00 | 0.00 | 60 | 1016.4 |
| 20260902204605 | 92 | 214 | 7.0 | 13.0 | 0.00 | 0.00 | 0.00 | 59 | 1016.5 |
| 20260902203118 | 92 | 236 | 7.0 | 14.0 | 0.00 | 0.00 | 0.00 | 59 | 1016.6 |
| 20260902201604 | 92 | 167 | 6.0 | 13.0 | 0.00 | 0.00 | 0.00 | 61 | 1016.6 |
| 20260902200106 | 92 | 196 | 6.0 | 12.0 | 0.00 | 0.00 | 0.00 | 60 | 1016.7 |
| 20260902194605 | 92 | 255 | 5.0 | 14.0 | 0.00 | 0.00 | 0.00 | 58 | 1016.9 |
| 20260902193107 | 92 | 267 | 5.0 | 12.0 | 0.00 | 0.00 | 0.00 | 59 | 1017.0 |
| 20260902191606 | 92 | 197 | 6.0 | 16.0 | 0.00 | 0.00 | 0.00 | 61 | 1017.1 |
| 20260902190112 | 91 | 177 | 5.0 | 10.0 | 0.00 | 0.00 | 0.00 | 61 | 1017.2 |
| 20260902184602 | 91 | 278 | 8.0 | 14.0 | 0.00 | 0.00 | 0.00 | 61 | 1017.4 |
| 20260902183107 | 91 | 155 | 3.0 | 12.0 | 0.00 | 0.00 | 0.00 | 61 | 1017.3 |
| 20260902181605 | 91 | 211 | 3.0 | 12.0 | 0.00 | 0.00 | 0.00 | 62 | 1017.6 |
| 20260902174610 | 90 | 165 | 6.0 | 14.0 | 0.00 | 0.00 | 0.00 | 62 | 1017.8 |
| 20260902173103 | 90 | 188 | 7.0 | 14.0 | 0.00 | 0.00 | 0.00 | 64 | 1017.9 |
| 20260902171606 | 90 | 161 | 3.0 | 12.0 | 0.00 | 0.00 | 0.00 | 66 | 1018.0 |
| 20260902170106 | 89 | 191 | 7.0 | 11.0 | 0.00 | 0.00 | 0.00 | 66 | 1018.3 |
| 20260902164610 | 89 | 178 | 4.0 | 9.0 | 0.00 | 0.00 | 0.00 | 67 | 1018.3 |
| 20260902163113 | 89 | 235 | 3.0 | 11.0 | 0.00 | 0.00 | 0.00 | 67 | 1018.4 |
| 20260902161601 | 88 | 188 | 6.0 | 11.0 | 0.00 | 0.00 | 0.00 | 66 | 1018.5 |
| 20260902160121 | 88 | 244 | 6.0 | 9.0 | 0.00 | 0.00 | 0.00 | 69 | 1018.6 |
| 20260902154605 | 87 | 245 | 5.0 | 8.0 | 0.00 | 0.00 | 0.00 | 73 | 1018.7 |
| 20260902153108 | 86 | 177 | 2.0 | 5.0 | 0.00 | 0.00 | 0.00 | 76 | 1018.8 |
| 20260902151609 | 85 | 0 | 3.0 | 5.0 | 0.00 | 0.00 | 0.00 | 76 | 1018.7 |
| 20260902150104 | 84 | 248 | 3.0 | 8.0 | 0.00 | 0.00 | 0.00 | 77 | 1018.8 |
| 20260902144600 | 83 | 223 | 3.0 | 5.0 | 0.00 | 0.00 | 0.00 | 80 | 1018.8 |
| 20260902143109 | 82 | 244 | 2.0 | 6.0 | 0.00 | 0.00 | 0.00 | 81 | 1018.9 |
| 20260902141600 | 80 | 244 | 2.0 | 4.0 | 0.00 | 0.00 | 0.00 | 82 | 1018.8 |
| 20260902140106 | 79 | 239 | 2.0 | 4.0 | 0.00 | 0.00 | 0.00 | 84 | 1018.7 |
| 20260902134611 | 78 | 238 | 2.0 | 5.0 | 0.00 | 0.00 | 0.00 | 85 | 1018.8 |
| 20260902133108 | 78 | 252 | 3.0 | 6.0 | 0.00 | 0.00 | 0.00 | 85 | 1018.9 |
| 20260902131607 | 77 | 0 | 1.0 | 3.0 | 0.00 | 0.00 | 0.00 | 87 | 1018.8 |
| 20260902130104 | 76 | 225 | 0.0 | 4.0 | 0.00 | 0.00 | 0.00 | 89 | 1018.7 |
| 20260902124603 | 75 | 225 | 1.0 | 4.0 | 0.00 | 0.00 | 0.00 | 90 | 1018.8 |
| 20260902123104 | 74 | 203 | 1.0 | 4.0 | 0.00 | 0.00 | 0.00 | 92 | 1018.5 |
| 20260902121602 | 73 | 198 | 2.0 | 5.0 | 0.00 | 0.00 | 0.00 | 93 | 1018.4 |
| 20260902120104 | 72 | 179 | 3.0 | 6.0 | 0.00 | 0.00 | 0.00 | 94 | 1018.3 |
| 20260902114603 | 73 | 202 | 3.0 | 5.0 | 0.00 | 0.00 | 0.00 | 92 | 1018.1 |
| 20260902113106 | 74 | 211 | 3.0 | 4.0 | 0.00 | 0.00 | 0.00 | 91 | 1018.0 |
| 20260902111602 | 74 | 211 | 3.0 | 4.0 | 0.00 | 0.00 | 0.00 | 91 | 1017.8 |
| 20260902110104 | 74 | 211 | 3.0 | 4.0 | 0.00 | 0.00 | 0.00 | 89 | 1017.8 |
| 20260902104624 | 75 | 211 | 2.0 | 4.0 | 0.00 | 0.00 | 0.00 | 88 | 1017.7 |
| 20260902103104 | 75 | 211 | 3.0 | 4.0 | 0.00 | 0.00 | 0.00 | 88 | 1017.7 |
| 20260902101606 | 75 | 211 | 2.0 | 4.0 | 0.00 | 0.00 | 0.00 | 87 | 1017.8 |
| 20260902100128 | 76 | 211 | 3.0 | 5.0 | 0.00 | 0.00 | 0.00 | 85 | 1017.7 |
| 20260902094606 | 76 | 211 | 3.0 | 4.0 | 0.00 | 0.00 | 0.00 | 86 | 1017.5 |
| 20260902093125 | 76 | 211 | 2.0 | 4.0 | 0.00 | 0.00 | 0.00 | 86 | 1017.4 |
| 20260902091624 | 75 | 211 | 3.0 | 5.0 | 0.00 | 0.00 | 0.00 | 86 | 1017.4 |
| 20260902090106 | 75 | 211 | 2.0 | 4.0 | 0.00 | 0.00 | 0.00 | 90 | 1017.4 |
| 20260902084608 | 75 | 204 | 2.0 | 3.0 | 0.00 | 0.00 | 0.00 | 90 | 1017.2 |
| 20260902083111 | 76 | 204 | 2.0 | 4.0 | 0.00 | 0.00 | 0.00 | 88 | 1017.1 |
| 20260902081619 | 76 | 204 | 4.0 | 5.0 | 0.00 | 0.00 | 0.00 | 85 | 1016.9 |
| 20260902080107 | 76 | 203 | 3.0 | 5.0 | 0.00 | 0.00 | 0.00 | 85 | 1016.8 |
| 20260902074606 | 76 | 202 | 3.0 | 4.0 | 0.00 | 0.00 | 0.00 | 87 | 1016.7 |
| 20260902073107 | 76 | 202 | 3.0 | 5.0 | 0.00 | 0.00 | 0.00 | 87 | 1016.8 |
| 20260902071632 | 77 | 200 | 2.0 | 5.0 | 0.00 | 0.00 | 0.00 | 86 | 1016.8 |
| 20260902070104 | 77 | 188 | 3.0 | 6.0 | 0.00 | 0.00 | 0.00 | 86 | 1016.9 |
| 20260902064612 | 77 | 182 | 3.0 | 5.0 | 0.00 | 0.00 | 0.00 | 86 | 1016.8 |
| 20260902063133 | 76 | 182 | 4.0 | 5.0 | 0.00 | 0.00 | 0.00 | 91 | 1016.8 |
| 20260902061605 | 75 | 182 | 3.0 | 5.0 | 0.00 | 0.00 | 0.00 | 93 | 1016.9 |
| 20260902060137 | 76 | 175 | 3.0 | 4.0 | 0.00 | 0.00 | 0.00 | 90 | 1017.0 |
| 20260902054603 | 77 | 202 | 2.0 | 4.0 | 0.00 | 0.00 | 0.00 | 88 | 1017.0 |
| 20260902053105 | 78 | 202 | 3.0 | 5.0 | 0.00 | 0.00 | 0.00 | 85 | 1017.0 |
| 20260902051613 | 78 | 197 | 3.0 | 5.0 | 0.00 | 0.00 | 0.00 | 85 | 1016.8 |
| 20260902050108 | 78 | 197 | 3.0 | 5.0 | 0.00 | 0.00 | 0.00 | 85 | 1016.9 |
| 20260902044601 | 79 | 195 | 4.0 | 6.0 | 0.00 | 0.00 | 0.00 | 85 | 1016.9 |
| 20260902043109 | 79 | 190 | 3.0 | 5.0 | 0.00 | 0.00 | 0.00 | 85 | 1016.8 |
| 20260902041604 | 80 | 204 | 3.0 | 5.0 | 0.00 | 0.00 | 0.00 | 83 | 1016.9 |
| 20260902040107 | 79 | 203 | 3.0 | 5.0 | 0.00 | 0.00 | 0.00 | 84 | 1016.9 |
| 20260902034601 | 80 | 195 | 4.0 | 6.0 | 0.00 | 0.00 | 0.00 | 83 | 1017.0 |
| 20260902033117 | 80 | 203 | 4.0 | 6.0 | 0.00 | 0.00 | 0.00 | 83 | 1016.9 |
| 20260902031606 | 80 | 206 | 3.0 | 6.0 | 0.00 | 0.00 | 0.00 | 82 | 1016.8 |
| 20260902024618 | 82 | 202 | 1.0 | 5.0 | 0.00 | 0.00 | 0.00 | 78 | 1016.9 |
| 20260902023100 | 83 | 202 | 2.0 | 5.0 | 0.00 | 0.00 | 0.00 | 75 | 1016.9 |
| 20260902021602 | 84 | 179 | 3.0 | 5.0 | 0.00 | 0.00 | 0.00 | 77 | 1017.0 |
| 20260902020139 | 83 | 178 | 4.0 | 6.0 | 0.00 | 0.00 | 0.00 | 74 | 1016.9 |
| 20260902014603 | 85 | 178 | 4.0 | 7.0 | 0.00 | 0.00 | 0.00 | 72 | 1016.9 |
| 20260902013120 | 86 | 176 | 3.0 | 5.0 | 0.00 | 0.00 | 0.00 | 70 | 1017.0 |
| 20260902011602 | 86 | 176 | 3.0 | 5.0 | 0.00 | 0.00 | 0.00 | 69 | 1016.7 |
| 20260902010104 | 87 | 205 | 2.0 | 4.0 | 0.00 | 0.00 | 0.00 | 66 | 1016.4 |
| 20260902004606 | 88 | 205 | 3.0 | 4.0 | 0.00 | 0.00 | 0.00 | 65 | 1016.4 |
| 20260902003105 | 88 | 205 | 3.0 | 4.0 | 0.00 | 0.00 | 0.00 | 65 | 1016.5 |
| 20260902001619 | 88 | 205 | 3.0 | 6.0 | 0.00 | 0.00 | 0.00 | 64 | 1016.5 |
| 20260902000105 | 89 | 200 | 5.0 | 7.0 | 0.00 | 0.00 | 0.00 | 64 | 1016.5 |
| 20260901234613 | 89 | 213 | 4.0 | 7.0 | 0.00 | 0.00 | 0.00 | 63 | 1016.5 |
| 20260901233107 | 90 | 194 | 4.0 | 7.0 | 0.00 | 0.00 | 0.00 | 62 | 1016.7 |
| 20260901231606 | 91 | 216 | 3.0 | 5.0 | 0.00 | 0.00 | 0.00 | 60 | 1016.9 |
| 20260901230106 | 91 | 199 | 4.0 | 6.0 | 0.00 | 0.00 | 0.00 | 60 | 1016.8 |
| 20260901224612 | 92 | 216 | 3.0 | 9.0 | 0.00 | 0.00 | 0.00 | 59 | 1016.8 |
| 20260901223116 | 91 | 229 | 5.0 | 10.0 | 0.00 | 0.00 | 0.00 | 59 | 1016.7 |